Location: Tel Aviv
(32.0670°N, 34.7670°E)
Time: 14:16:04
(UTC+03:00)

Explorer 11/Cluster Stage 4 - Pass Details

Date: 12 September 2024
Orbit: 464 x 1208 km, 28.8° (Epoch: 06 October)

Event Time Altitude Azimuth Distance (km) Brightness Sun altitude
Rises 11:12:07 0° 269° (W) 4,064 10.0 55.5°
Reaches altitude 10° 11:14:59 10° 267° (W) 3,131 9.6 55.9°
Maximum altitude 11:22:54 67° 187° (S) 1,278 9.3 56.9°
Drops below altitude 10° 11:30:25 10° 106° (ESE) 2,980 10.1 57.8°
Sets 11:33:05 0° 104° (ESE) 3,857 10.4 58.1°
